New Bedford, MA

12:22 AM EDT on October 20, 2019 (GMT -0400)
New Bedford Regional

Weather History for KEWB - September, 2019

Change the Weather History Date:

Monday, September 23, 2019

  Actual Average Record
Temperature  
Mean Temperature 72 °F -  
Max Temperature 80 °F 70 °F 90 °F (1970)
Min Temperature 66 °F 54 °F 37 °F (1998)
Cooling Degree Days 8    
Growing Degree Days 22 (Base 50)    
Moisture  
Dew Point 66 °F    
Average Humidity 82    
Maximum Humidity 90    
Minimum Humidity 66    
Precipitation  
Precipitation 0.00 in - - ()
Sea Level Pressure  
Sea Level Pressure 29.84 in    
Wind  
Wind Speed 12 mph (SW)    
Max Wind Speed 21 mph    
Max Gust Speed 29 mph    
Visibility 10 miles    
Events      
Averages and records for this station are not official NWS values.
T = Trace of Precipitation, MM = Missing Value Source: NWS Daily Summary

Daily Weather History Graph

Daily Weather History Graph

Search for Another Location

Airport or City:

Astronomy

Sep. 23, 2019 Rise Set
Actual Time 6:32 AM EDT 6:39 PM EDT
Civil Twilight 6:04 AM EDT 7:07 PM EDT
Nautical Twilight 5:31 AM EDT 7:39 PM EDT
Astronomical Twilight 4:58 AM EDT 8:12 PM EDT
Moon 12:06 AM EDT (9/23) 3:35 PM EDT (9/23)
Length of Visible Light 13h 03m
Length of Day
12h 07m
Waning Crescent, 33% of the Moon is Illuminated
Sep 23
Waning Crescent
Sep 28
New
Oct 5
First Quarter
Oct 13
Full
Oct 21
Last Quarter

Hourly Weather History & Observations

Time (EDT) Temp. Dew Point Humidity Pressure Visibility Wind Dir Wind Speed Gust Speed Precip Events Conditions
12:11 AM 66.9 °F 64.0 °F 90% 29.99 in 10.0 mi SW 9.2 mph - N/A   Partly Cloudy
12:53 AM 66.9 °F 64.0 °F 90% 29.98 in 10.0 mi SW 8.1 mph - N/A   Partly Cloudy
1:53 AM 66.9 °F 64.0 °F 90% 29.97 in 10.0 mi SW 8.1 mph - N/A   Clear
2:53 AM 66.9 °F 64.0 °F 90% 29.95 in 10.0 mi SW 9.2 mph - N/A   Clear
3:53 AM 68.0 °F 64.0 °F 87% 29.93 in 10.0 mi SW 9.2 mph - N/A   Clear
4:53 AM 66.9 °F 64.0 °F 90% 29.92 in 10.0 mi SSW 8.1 mph - N/A   Clear
5:53 AM 68.0 °F 64.0 °F 87% 29.92 in 10.0 mi SW 8.1 mph - N/A   Clear
6:53 AM 68.0 °F 64.0 °F 87% 29.91 in 10.0 mi SW 12.7 mph - N/A   Clear
7:53 AM 70.0 °F 64.9 °F 84% 29.91 in 10.0 mi SW 13.8 mph - N/A   Clear
8:53 AM 73.0 °F 66.0 °F 79% 29.90 in 10.0 mi SW 17.3 mph 23.0 mph N/A   Partly Cloudy
9:53 AM 75.0 °F 66.0 °F 73% 29.89 in 10.0 mi SW 16.1 mph 25.3 mph N/A   Scattered Clouds
10:53 AM 75.9 °F 66.9 °F 74% 29.88 in 10.0 mi SSW 15.0 mph - N/A   Partly Cloudy
11:53 AM 75.9 °F 66.9 °F 74% 29.86 in 10.0 mi SW 18.4 mph 28.8 mph N/A   Clear
12:53 PM 78.1 °F 68.0 °F 71% 29.83 in 10.0 mi SSW 20.7 mph 26.5 mph N/A   Clear
1:53 PM 79.0 °F 66.9 °F 66% 29.82 in 10.0 mi SW 13.8 mph - N/A   Clear
2:53 PM 77.0 °F 66.9 °F 71% 29.79 in 10.0 mi SW 16.1 mph 23.0 mph N/A   Clear
3:53 PM 78.1 °F 66.9 °F 68% 29.78 in 10.0 mi SW 16.1 mph - N/A   Clear
4:53 PM 75.9 °F 66.9 °F 74% 29.78 in 10.0 mi SW 11.5 mph 19.6 mph N/A   Clear
5:53 PM 72.0 °F 66.0 °F 81% 29.76 in 10.0 mi SW 11.5 mph 23.0 mph N/A   Partly Cloudy
6:53 PM 70.0 °F 66.0 °F 87% 29.75 in 10.0 mi SW 11.5 mph - N/A   Partly Cloudy
7:42 PM 70.0 °F 66.0 °F 87% 29.75 in 10.0 mi SSW 11.5 mph - N/A   Mostly Cloudy
7:53 PM 70.0 °F 66.0 °F 87% 29.75 in 10.0 mi SSW 10.4 mph - N/A   Mostly Cloudy
8:53 PM 70.0 °F 66.0 °F 87% 29.75 in 10.0 mi SW 13.8 mph - N/A   Overcast
9:53 PM 70.0 °F 66.0 °F 87% 29.74 in 10.0 mi SW 15.0 mph - N/A   Overcast
10:53 PM 71.1 °F 66.0 °F 84% 29.73 in 10.0 mi SW 16.1 mph - N/A   Mostly Cloudy
11:12 PM 71.1 °F 66.0 °F 84% 29.72 in 10.0 mi SW 15.0 mph - N/A   Overcast
11:53 PM 70.0 °F 66.0 °F 87% 29.72 in 10.0 mi SW 15.0 mph - 0.00 in   Overcast